INTERCOSMOS 25

Last updated on Mon Sep 21 2026 00:02:08 GMT+0000 (Coordinated Universal Time)

1 21819U 91086A 26263.19439960 .00001386 00000+0 26465-3 0 9998 2 21819 82.6072 192.3446 1485453 57.4641 316.1294 12.12346829520252
UTC large
Height (km)
Speed (km/s)
/
Latitude / Longitude
Inclination (degrees)
Orbital Period (minutes)
Azimuth
Elevation
Range (km)
Doppler Factor

Next 0 passes for location: London (51.5072 / 0.1276)

No passes found over London.
INTERCOSMOS 25